Location: Boiro
(42.6475°N, 8.8834°W)
Time: 03:09:39
(UTC+02:00)

LINGQIAO VIDEO B - Pass Details

Date: 04 July 2022
Orbit: 636 x 662 km, 97.7° (Epoch: 14 August)

Event Time Altitude Azimuth Distance (km) Brightness Sun altitude
Rises 23:56:51 0° 210° (SSW) 2,966 ? -14.5°
Reaches altitude 10° 23:59:54 10° 233° (SW) 2,066 ? -14.8°
Maximum altitude 00:02:35 15° 269° (W) 1,737 ? -15.1°
Drops below altitude 10° 00:05:17 10° 306° (NW) 2,083 ? -15.4°
Sets 00:08:24 0° 329° (NNW) 3,005 ? -15.7°
